Weather History for PAGK - April, 2013

Change the Weather History Date:

Friday, April 19, 2013

  Actual Average Record
Temperature  
Mean Temperature 20 °F -  
Max Temperature 39 °F 43 °F 55 °F (1999)
Min Temperature 0 °F 22 °F -9 °F (1963)
Degree Days  
Heating Degree Days 46    
Moisture  
Dew Point 4 °F    
Average Humidity 43    
Maximum Humidity 79    
Minimum Humidity 15    
Precipitation  
Precipitation 0.00 in - - ()
Snow  
Snow 0.00 in - - ()
Snow Depth 7.00 in    
Sea Level Pressure  
Sea Level Pressure 30.35 in    
Wind  
Wind Speed 8 mph (NNW)    
Max Wind Speed 16 mph    
Max Gust Speed 22 mph    
Visibility 10 miles    
Events      
Averages and records for this station are not official NWS values.
T = Trace of Precipitation, MM = Missing Value Source: NWS Daily Summary

Daily Weather History Graph

Daily Weather History Graph

Search for Another Location

Airport or City:

Trip Planner

Search our weather history database for the weather conditions in past years. The results will help you decide how hot, cold, wet, or windy it might be!

Date:

Astronomy

Apr. 19, 2013 Rise Set
Actual Time 6:03 AM AKDT 9:20 PM AKDT
Civil Twilight 5:11 AM AKDT 10:13 PM AKDT
Nautical Twilight 3:55 AM AKDT 11:30 PM AKDT
Astronomical Twilight 2:13 AM AKDT 1:08 AM AKDT
Moon 1:27 PM AKDT (4/19) 4:15 AM AKDT (4/19)
Length of Visible Light 17h 02m
Length of Day
15h 16m
Waxing Gibbous, 63% of the Moon is Illuminated
Apr 19
Waxing Gibbous
Apr 25
Full
May 2
Last Quarter
May 9
New
May 17
First Quarter

Hourly Weather History & Observations

Time (AKDT) Temp. Windchill Dew Point Humidity Pressure Visibility Wind Dir Wind Speed Gust Speed Precip Events Conditions
12:53 AM 17.1 °F 5.8 °F 3.9 °F 56% 30.25 in 10.0 mi NW 9.2 mph - N/A   Clear
1:53 AM 16.0 °F 5.3 °F 3.0 °F 57% 30.26 in 10.0 mi NW 8.1 mph - N/A   Clear
2:53 AM 17.1 °F 6.6 °F 3.0 °F 54% 30.27 in 10.0 mi NNW 8.1 mph - N/A   Clear
3:53 AM 12.0 °F 4.1 °F 1.9 °F 64% 30.30 in 10.0 mi NE 4.6 mph - N/A   Clear
4:53 AM 6.1 °F -0.9 °F -0.9 °F 73% 30.33 in 10.0 mi North 3.5 mph - N/A   Clear
5:53 AM 1.9 °F -5.6 °F -4.0 °F 76% 30.35 in 10.0 mi NNW 3.5 mph - N/A   Clear
5:59 AM 1.0 °F -6.7 °F -4.0 °F 79% 30.22 in 10.0 mi NW 3.5 mph - N/A   Clear
6:53 AM 5.0 °F -2.1 °F -2.0 °F 73% 30.36 in 10.0 mi NNE 3.5 mph - N/A   Clear
7:53 AM 15.1 °F 5.2 °F 1.0 °F 54% 30.36 in 10.0 mi North 6.9 mph - N/A   Clear
8:53 AM 19.0 °F 10.0 °F 3.0 °F 50% 30.37 in 10.0 mi NNE 6.9 mph - N/A   Partly Cloudy
9:53 AM 24.1 °F 18.2 °F 3.0 °F 40% 30.38 in 10.0 mi Variable 4.6 mph - N/A   Clear
10:53 AM 28.0 °F 16.1 °F 6.1 °F 39% 30.37 in 10.0 mi North 16.1 mph 19.6 mph N/A   Partly Cloudy
11:53 AM 28.9 °F 19.8 °F 6.1 °F 38% 30.39 in 10.0 mi NNW 10.4 mph - N/A   Partly Cloudy
12:53 PM 30.9 °F 23.5 °F 7.0 °F 37% 30.40 in 10.0 mi North 8.1 mph - N/A   Partly Cloudy
1:53 PM 32.0 °F 23.0 °F 6.1 °F 34% 30.39 in 10.0 mi NNW 11.5 mph 17.3 mph N/A   Clear
2:53 PM 35.1 °F 27.4 °F 7.0 °F 31% 30.38 in 10.0 mi WNW 10.4 mph - N/A   Clear
3:53 PM 37.9 °F 33.5 °F 7.0 °F 28% 30.37 in 10.0 mi NW 5.8 mph - N/A   Clear
4:53 PM 37.9 °F 29.6 °F 7.0 °F 28% 30.37 in 10.0 mi NNW 13.8 mph 21.9 mph N/A   Clear
5:53 PM 39.0 °F 32.8 °F 8.1 °F 28% 30.37 in 10.0 mi North 9.2 mph 16.1 mph N/A   Clear
6:53 PM 37.9 °F 30.0 °F 8.1 °F 29% 30.37 in 10.0 mi NNE 12.7 mph - N/A   Clear
7:53 PM 35.1 °F 27.9 °F 7.0 °F 31% 30.37 in 10.0 mi NNE 9.2 mph - N/A   Clear
8:53 PM 32.0 °F 23.0 °F 5.0 °F 32% 30.37 in 10.0 mi North 11.5 mph 17.3 mph N/A   Clear
9:25 PM 28.9 °F 21.1 °F 5.0 °F 36% 30.28 in 10.0 mi North 8.1 mph - N/A   Clear
9:53 PM 28.9 °F 21.9 °F 3.9 °F 35% 30.38 in 10.0 mi NNW 6.9 mph - N/A   Clear
10:53 PM 27.0 °F 19.5 °F 1.9 °F 34% 30.38 in 10.0 mi NW 6.9 mph - N/A   Clear
11:53 PM 25.0 °F 16.3 °F 3.0 °F 39% 30.39 in 10.0 mi NNW 8.1 mph - N/A   Clear